sat.trackr.live / text

‹ back to catalog

STARLINK-4070

NORAD 52664 · 2022-053J

PAYLOAD ACTIVE UNKNOWN

§ Identity

Operator
Country
US
Launch date
2022-05-18
Launch site
AFETR
Launch vehicle
Mass (kg)
RCS (m²)

Purposes: comms

External: N2YO · Heavens-Above · Gunter

§ Orbital elements

Epoch: 2026-09-19T21:30:20.854080Z

Period
95.44 min
Inclination
53.1628°
Eccentricity
0.0001069
Mean motion
15.08833341 rev/d
Perigee alt
539.0 km
Apogee alt
540.5 km
Semi-major
6,917.9 km
B*
2.3430e-5
RAAN
1.6335°
Arg perigee
94.4013°
Mean anomaly
265.7101°
Rev number
24,036

§ Raw data

STARLINK-40701 52664U 22053J   26262.89607470  .00000085  00000+0  23430-4 0  99922 52664  53.1628   1.6335 0001069  94.4013 265.7101 15.08833341240368

JSON: /api/v1/satellites/52664 · /tle

For live sub-satellite position, see the globe view (requires WebGL).

§ Visibility from observer

Set your observer location to see the next 7 days of passes ≥ 10°. The values pass through the URL so the page stays shareable.

No JS? Fill the form by hand. The geolocation button needs JavaScript.